• In Österreich
  • Länderverzeichnis
  • Für 7 Tage
  • Wassertemperatur
  • Satellitenkarten
  • Wetterkarte
  • News
  • Widgets
  • user-avatar
    Anmelden

    Stündliche Wetter Zemsko

    Heute, 22 Juni, Freitag

    Zeit Temperatur Niederschläge Wind Luftdruck Luftfeuchtigkeit
    00:00 +10°C° 0 mm 5 m/S 755 mmHg 67%
    01:00 +10°C° 0 mm 3 m/S 755 mmHg 72%
    02:00 +10°C° 0 mm 4 m/S 755 mmHg 73%
    03:00 +10°C° 0 mm 4 m/S 756 mmHg 74%
    04:00 +8°C° 0 mm 5 m/S 756 mmHg 75%
    05:00 +9°C° 0 mm 5 m/S 756 mmHg 72%
    06:00 +10°C° 0 mm 6 m/S 756 mmHg 70%
    07:00 +11°C° 0 mm 6 m/S 756 mmHg 66%
    08:00 +11°C° 0 mm 6 m/S 756 mmHg 65%
    09:00 +12°C° 0 mm 5 m/S 756 mmHg 65%
    10:00 +13°C° 0 mm 5 m/S 756 mmHg 64%
    11:00 +14°C° 0,3 mm 5 m/S 756 mmHg 60%
    12:00 +15°C° 0,3 mm 5 m/S 756 mmHg 56%
    13:00 +17°C° 0 mm 4 m/S 757 mmHg 54%
    14:00 +18°C° 0,3 mm 4 m/S 757 mmHg 54%
    15:00 +18°C° 0,3 mm 4 m/S 757 mmHg 53%
    16:00 +18°C° 0,3 mm 4 m/S 756 mmHg 53%
    17:00 +18°C° 0,2 mm 4 m/S 757 mmHg 58%
    18:00 +17°C° 0,2 mm 3 m/S 757 mmHg 63%
    19:00 +16°C° 0,2 mm 3 m/S 757 mmHg 67%
    20:00 +14°C° 0 mm 3 m/S 757 mmHg 73%
    21:00 +13°C° 0 mm 3 m/S 757 mmHg 78%
    22:00 +11°C° 0 mm 3 m/S 757 mmHg 83%
    23:00 +11°C° 0 mm 3 m/S 757 mmHg 83%

    Morgen, 23 Juni, Samstag

    Zeit Temperatur Niederschläge Wind Luftdruck Luftfeuchtigkeit
    00:00 +11°C° 0 mm 4 m/S 757 mmHg 82%
    01:00 +11°C° 0 mm 4 m/S 757 mmHg 82%
    02:00 +11°C° 0,1 mm 4 m/S 757 mmHg 82%
    03:00 +10°C° 0,1 mm 5 m/S 757 mmHg 81%
    04:00 +10°C° 0,1 mm 5 m/S 757 mmHg 81%
    05:00 +10°C° 0 mm 5 m/S 757 mmHg 78%
    06:00 +11°C° 0 mm 6 m/S 757 mmHg 74%
    07:00 +11°C° 0 mm 6 m/S 757 mmHg 71%
    08:00 +11°C° 0 mm 6 m/S 757 mmHg 70%
    09:00 +13°C° 0 mm 6 m/S 758 mmHg 69%
    10:00 +13°C° 0 mm 6 m/S 758 mmHg 68%
    11:00 +14°C° 0,1 mm 6 m/S 757 mmHg 67%
    12:00 +14°C° 0,1 mm 6 m/S 757 mmHg 66%
    13:00 +15°C° 0,1 mm 6 m/S 757 mmHg 65%
    14:00 +15°C° 0,4 mm 6 m/S 757 mmHg 67%
    15:00 +16°C° 0,4 mm 5 m/S 757 mmHg 68%
    16:00 +16°C° 0,4 mm 5 m/S 757 mmHg 70%
    17:00 +15°C° 0,4 mm 5 m/S 757 mmHg 73%
    18:00 +14°C° 0,4 mm 5 m/S 757 mmHg 76%
    19:00 +14°C° 0,4 mm 4 m/S 757 mmHg 80%
    20:00 +13°C° 0,1 mm 4 m/S 757 mmHg 82%
    21:00 +12°C° 0,1 mm 4 m/S 757 mmHg 85%
    22:00 +12°C° 0,1 mm 4 m/S 758 mmHg 88%
    23:00 +11°C° 0 mm 4 m/S 758 mmHg 90%

    übermorgen, 24 Juni, Sonntag

    Zeit Temperatur Niederschläge Wind Luftdruck Luftfeuchtigkeit
    00:00 +11°C° 0 mm 3 m/S 758 mmHg 93%
    01:00 +10°C° 0 mm 3 m/S 758 mmHg 96%
    02:00 +10°C° 0 mm 3 m/S 758 mmHg 96%
    03:00 +11°C° 0 mm 3 m/S 758 mmHg 96%
    04:00 +11°C° 0 mm 3 m/S 758 mmHg 95%
    05:00 +11°C° 0 mm 4 m/S 758 mmHg 93%
    06:00 +12°C° 0 mm 4 m/S 758 mmHg 91%
    07:00 +13°C° 0 mm 4 m/S 758 mmHg 89%
    08:00 +14°C° 0,1 mm 4 m/S 758 mmHg 84%
    09:00 +15°C° 0,1 mm 4 m/S 758 mmHg 78%
    10:00 +17°C° 0,1 mm 4 m/S 758 mmHg 72%
    11:00 +17°C° 0,2 mm 5 m/S 758 mmHg 69%
    12:00 +17°C° 0,2 mm 5 m/S 758 mmHg 66%
    13:00 +19°C° 0,2 mm 5 m/S 758 mmHg 63%
    14:00 +19°C° 0,3 mm 5 m/S 758 mmHg 63%
    15:00 +19°C° 0,3 mm 5 m/S 758 mmHg 63%
    16:00 +19°C° 0,3 mm 5 m/S 758 mmHg 63%
    17:00 +18°C° 0,3 mm 4 m/S 758 mmHg 68%
    18:00 +18°C° 0,3 mm 4 m/S 758 mmHg 72%
    19:00 +17°C° 0,3 mm 3 m/S 758 mmHg 76%
    20:00 +16°C° 0 mm 3 m/S 758 mmHg 81%
    21:00 +13°C° 0 mm 3 m/S 758 mmHg 87%
    22:00 +13°C° 0 mm 2 m/S 759 mmHg 92%
    23:00 +13°C° 0 mm 2 m/S 759 mmHg 94%

    25 Juni, Montag

    Zeit Temperatur Niederschläge Wind Luftdruck Luftfeuchtigkeit
    00:00 +12°C° 0 mm 2 m/S 759 mmHg 95%
    01:00 +12°C° 0 mm 2 m/S 759 mmHg 96%
    02:00 +12°C° 0 mm 2 m/S 759 mmHg 96%
    03:00 +10°C° 0 mm 2 m/S 759 mmHg 96%
    04:00 +10°C° 0 mm 2 m/S 759 mmHg 97%
    05:00 +13°C° 0 mm 2 m/S 759 mmHg 91%
    06:00 +14°C° 0 mm 2 m/S 759 mmHg 86%
    07:00 +16°C° 0 mm 2 m/S 760 mmHg 80%
    08:00 +17°C° 0 mm 2 m/S 760 mmHg 72%
    09:00 +19°C° 0 mm 2 m/S 760 mmHg 65%
    10:00 +20°C° 0 mm 2 m/S 760 mmHg 57%
    11:00 +21°C° 0 mm 3 m/S 760 mmHg 55%
    12:00 +21°C° 0 mm 3 m/S 760 mmHg 54%
    13:00 +22°C° 0 mm 3 m/S 760 mmHg 53%
    14:00 +22°C° 0 mm 3 m/S 760 mmHg 53%
    15:00 +22°C° 0 mm 3 m/S 760 mmHg 52%
    16:00 +22°C° 0 mm 3 m/S 760 mmHg 52%
    17:00 +21°C° 0 mm 3 m/S 760 mmHg 56%
    18:00 +21°C° 0 mm 2 m/S 761 mmHg 60%
    19:00 +20°C° 0 mm 2 m/S 761 mmHg 64%
    20:00 +20°C° 0 mm 1 m/S 761 mmHg 70%
    21:00 +18°C° 0 mm 1 m/S 761 mmHg 75%
    22:00 +15°C° 0 mm 1 m/S 762 mmHg 81%
    23:00 +15°C° 0 mm 1 m/S 762 mmHg 84%

    26 Juni, Dienstag

    Zeit Temperatur Niederschläge Wind Luftdruck Luftfeuchtigkeit
    00:00 +14°C° 0 mm 1 m/S 762 mmHg 87%
    01:00 +14°C° 0 mm 1 m/S 762 mmHg 89%
    02:00 +14°C° 0 mm 1 m/S 762 mmHg 91%
    03:00 +13°C° 0 mm 1 m/S 762 mmHg 92%
    04:00 +13°C° 0 mm 1 m/S 762 mmHg 94%
    05:00 +15°C° 0 mm 1 m/S 762 mmHg 87%
    06:00 +18°C° 0 mm 1 m/S 762 mmHg 81%
    07:00 +19°C° 0 mm 1 m/S 763 mmHg 74%
    08:00 +21°C° 0 mm 1 m/S 763 mmHg 69%
    09:00 +22°C° 0 mm 1 m/S 763 mmHg 64%
    10:00 +23°C° 0 mm 1 m/S 763 mmHg 59%
    11:00 +24°C° 0 mm 1 m/S 763 mmHg 56%
    12:00 +25°C° 0 mm 2 m/S 763 mmHg 52%
    13:00 +26°C° 0 mm 2 m/S 763 mmHg 49%
    14:00 +26°C° 0 mm 2 m/S 763 mmHg 48%
    15:00 +27°C° 0 mm 2 m/S 763 mmHg 47%
    16:00 +27°C° 0 mm 2 m/S 763 mmHg 46%
    17:00 +26°C° 0 mm 1 m/S 763 mmHg 51%
    18:00 +25°C° 0 mm 1 m/S 763 mmHg 56%
    19:00 +24°C° 0 mm 1 m/S 763 mmHg 61%
    20:00 +23°C° 0 mm 1 m/S 763 mmHg 66%
    21:00 +22°C° 0 mm 1 m/S 763 mmHg 70%
    22:00 +19°C° 0 mm 2 m/S 764 mmHg 74%
    23:00 +18°C° 0 mm 2 m/S 764 mmHg 77%

    27 Juni, Mittwoch

    Zeit Temperatur Niederschläge Wind Luftdruck Luftfeuchtigkeit
    00:00 +18°C° 0 mm 2 m/S 764 mmHg 80%
    01:00 +17°C° 0 mm 2 m/S 764 mmHg 83%
    02:00 +16°C° 0 mm 2 m/S 764 mmHg 85%
    03:00 +16°C° 0 mm 1 m/S 764 mmHg 87%
    04:00 +16°C° 0 mm 1 m/S 764 mmHg 88%
    05:00 +17°C° 0 mm 2 m/S 764 mmHg 80%
    06:00 +19°C° 0 mm 2 m/S 765 mmHg 71%
    07:00 +21°C° 0 mm 2 m/S 765 mmHg 62%
    08:00 +24°C° 0 mm 2 m/S 765 mmHg 54%
    09:00 +25°C° 0 mm 2 m/S 765 mmHg 46%
    10:00 +27°C° 0 mm 3 m/S 765 mmHg 38%
    11:00 +28°C° 0 mm 3 m/S 765 mmHg 36%
    12:00 +29°C° 0 mm 3 m/S 765 mmHg 35%
    13:00 +30°C° 0 mm 3 m/S 764 mmHg 34%
    14:00 +29°C° 0 mm 3 m/S 764 mmHg 35%
    15:00 +29°C° 0 mm 3 m/S 764 mmHg 37%
    16:00 +29°C° 0 mm 3 m/S 764 mmHg 39%
    17:00 +28°C° 0 mm 3 m/S 764 mmHg 44%
    18:00 +27°C° 0 mm 2 m/S 764 mmHg 49%
    19:00 +26°C° 0 mm 2 m/S 764 mmHg 54%
    20:00 +25°C° 0 mm 2 m/S 764 mmHg 58%
    21:00 +23°C° 0 mm 2 m/S 765 mmHg 62%
    22:00 +20°C° 0 mm 2 m/S 765 mmHg 66%
    23:00 +20°C° 0 mm 2 m/S 765 mmHg 68%
    Mehr zeigen